This is the latest recevied weather packets stored in our database for station/object KC5TXI. If no packets are shown the sender has not sent any weather packets the latest 10 day(s).
| Time | Temp. | Humidity | Pressure | Rain* | Wind** | Luminosity | Snow |
|---|---|---|---|---|---|---|---|
| 1787428412 | 41.67° C | 30% | 1016.9 hPa | 0 mm | - | 699 W/m² | - |
| 1787428107 | 42.22° C | 30% | 1016.8 hPa | 0 mm | - | 724 W/m² | - |
| 1787427802 | 41.67° C | 32% | 1016.8 hPa | 0 mm | - | 781 W/m² | - |
| 1787427498 | 42.22° C | 30% | 1017 hPa | 0 mm | - | 427 W/m² | - |
| 1787427195 | 42.22° C | 30% | 1016.9 hPa | 0 mm | - | 378 W/m² | - |
| 1787426889 | 42.22° C | 30% | 1017.1 hPa | 0 mm | - | 297 W/m² | - |
| 1787426584 | 42.78° C | 30% | 1017.2 hPa | 0 mm | - | 622 W/m² | - |
| 1787426281 | 42.78° C | 30% | 1017.1 hPa | 0 mm | - | 733 W/m² | - |
| 1787425977 | 42.78° C | 30% | 1017.3 hPa | 0 mm | - | 702 W/m² | - |
| 1787425673 | 42.22° C | 30% | 1017.3 hPa | 0 mm | - | 658 W/m² | - |
| 1787425369 | 42.22° C | 32% | 1017.4 hPa | 0 mm | - | 686 W/m² | - |
| 1787425063 | 42.78° C | 30% | 1017.5 hPa | 0 mm | - | 716 W/m² | - |
| 1787424763 | 41.67° C | 31% | 1017.6 hPa | 0 mm | - | 657 W/m² | - |
| 1787424457 | 42.22° C | 32% | 1017.7 hPa | 0 mm | - | 669 W/m² | - |
| 1787424153 | 42.22° C | 32% | 1017.6 hPa | 0 mm | - | 671 W/m² | - |
| 1787423849 | 41.67° C | 33% | 1017.7 hPa | 0 mm | - | 651 W/m² | - |
| 1787423545 | 41.67° C | 32% | 1017.6 hPa | 0 mm | - | 673 W/m² | - |
| 1787423240 | 40.56° C | 34% | 1017.8 hPa | 0 mm | - | 629 W/m² | - |
| 1787422936 | 41.11° C | 33% | 1018 hPa | 0 mm | - | 603 W/m² | - |
| 1787422632 | 40.56° C | 34% | 1018.1 hPa | 0 mm | - | 606 W/m² | - |
| 1787422328 | 40.56° C | 36% | 1018.1 hPa | 0 mm | - | 601 W/m² | - |
| 1787422024 | 41.11° C | 34% | 1018.1 hPa | 0 mm | - | 547 W/m² | - |
| 1787421720 | 41.67° C | 32% | 1018.3 hPa | 0 mm | - | 585 W/m² | - |
| 1787421415 | 41.67° C | 33% | 1018.3 hPa | 0 mm | - | 604 W/m² | - |
| 1787421110 | 41.11° C | 35% | 1018.4 hPa | 0 mm | - | 605 W/m² | - |
* Rain latest hour (hover to see other rain measurements)
** Current wind speed in m/s (hover to see current wind gust speed)